TimeAKST,TemperatureF,Dew PointF,Humidity,Sea Level PressureIn,VisibilityMPH,Wind Direction,Wind SpeedMPH,Gust SpeedMPH,PrecipitationIn,Events,Conditions,WindDirDegrees,DateUTC
12:50 AM,33.8,33.8,100,30.38,10.0,NNW,4.6,-,N/A,,Scattered Clouds,340,2013-03-04 09:50:00
12:53 AM,34.0,33.1,96,30.39,10.0,North,3.5,-,N/A,,Mostly Cloudy,350,2013-03-04 09:53:00
1:11 AM,33.8,33.8,100,30.38,1.8,NNW,3.5,-,N/A,,Overcast,340,2013-03-04 10:11:00
1:30 AM,33.8,33.8,100,30.37,0.8,NNW,4.6,-,N/A,,Mist,340,2013-03-04 10:30:00
1:41 AM,33.8,33.8,100,30.37,1.5,NNW,5.8,-,N/A,,Overcast,340,2013-03-04 10:41:00
1:53 AM,34.0,33.1,96,30.38,1.0,NNW,6.9,-,N/A,,Mist,340,2013-03-04 10:53:00
2:15 AM,33.8,33.8,100,30.37,4.0,NNW,8.1,-,N/A,,Overcast,330,2013-03-04 11:15:00
2:53 AM,34.0,33.1,96,30.38,10.0,NNW,6.9,-,N/A,,Mostly Cloudy,340,2013-03-04 11:53:00
3:14 AM,33.8,33.8,100,30.37,10.0,NNW,4.6,-,N/A,,Overcast,340,2013-03-04 12:14:00
3:53 AM,34.0,32.0,92,30.37,10.0,NNW,5.8,-,N/A,,Overcast,340,2013-03-04 12:53:00
4:12 AM,33.8,32.0,93,30.36,10.0,NNW,5.8,-,N/A,,Scattered Clouds,340,2013-03-04 13:12:00
4:53 AM,32.0,30.9,96,30.36,10.0,Calm,Calm,-,N/A,,Clear,0,2013-03-04 13:53:00
5:53 AM,30.9,30.0,96,30.36,10.0,Calm,Calm,-,N/A,,Clear,0,2013-03-04 14:53:00
6:37 AM,32.0,30.2,93,30.34,10.0,Variable,4.6,-,N/A,,Partly Cloudy,0,2013-03-04 15:37:00
6:53 AM,32.0,30.0,92,30.35,10.0,Calm,Calm,-,N/A,,Partly Cloudy,0,2013-03-04 15:53:00
7:53 AM,34.0,32.0,92,30.34,10.0,North,5.8,-,N/A,,Clear,350,2013-03-04 16:53:00
8:53 AM,37.0,32.0,82,30.34,10.0,NW,5.8,-,N/A,,Clear,320,2013-03-04 17:53:00
9:53 AM,39.0,32.0,76,30.33,10.0,NNW,9.2,-,N/A,,Clear,330,2013-03-04 18:53:00
10:53 AM,42.1,30.9,65,30.32,10.0,NW,10.4,-,N/A,,Clear,320,2013-03-04 19:53:00
11:53 AM,45.0,28.0,52,30.30,10.0,NNW,6.9,-,N/A,,Clear,340,2013-03-04 20:53:00
12:53 PM,46.9,25.0,42,30.28,10.0,North,6.9,-,N/A,,Clear,360,2013-03-04 21:53:00
1:53 PM,48.0,23.0,37,30.26,10.0,Variable,5.8,-,N/A,,Clear,0,2013-03-04 22:53:00
2:53 PM,46.9,21.0,36,30.25,10.0,North,5.8,-,N/A,,Clear,360,2013-03-04 23:53:00
3:53 PM,46.0,19.9,35,30.23,10.0,Variable,6.9,-,N/A,,Clear,0,2013-03-05 00:53:00
4:53 PM,43.0,19.0,38,30.22,10.0,Variable,5.8,-,N/A,,Clear,0,2013-03-05 01:53:00
5:53 PM,41.0,18.0,40,30.20,10.0,Variable,3.5,-,N/A,,Clear,0,2013-03-05 02:53:00
6:53 PM,37.0,21.9,54,30.20,10.0,North,3.5,-,N/A,,Clear,10,2013-03-05 03:53:00
7:53 PM,39.0,19.0,45,30.19,10.0,ENE,5.8,-,N/A,,Clear,60,2013-03-05 04:53:00
8:53 PM,36.0,21.0,55,30.19,10.0,Variable,3.5,-,N/A,,Clear,0,2013-03-05 05:53:00
9:53 PM,36.0,23.0,59,30.19,10.0,NNW,5.8,-,N/A,,Clear,340,2013-03-05 06:53:00
10:53 PM,37.9,21.9,53,30.19,10.0,NNW,6.9,-,N/A,,Clear,330,2013-03-05 07:53:00
11:53 PM,36.0,18.0,48,30.17,10.0,Calm,Calm,-,N/A,,Clear,0,2013-03-05 08:53:00